Weather History for Doha, Qatar

Change the Weather History Date:

Tuesday, November 5, 2013

  Actual Average Record
Temperature  
Mean Temperature 82 °F -  
Max Temperature 87 °F 83 °F 98 °F (2006)
Min Temperature 77 °F 66 °F 64 °F (2000)
Cooling Degree Days 17    
Growing Degree Days 32 (Base 50)    
Moisture  
Dew Point 62 °F    
Average Humidity 54    
Maximum Humidity 74    
Minimum Humidity 30    
Precipitation  
Precipitation 0.00 in 0.01 in - ()
Sea Level Pressure  
Sea Level Pressure 30.06 in    
Wind  
Wind Speed 11 mph ()    
Max Wind Speed 15 mph    
Max Gust Speed -    
Visibility 7.0 miles    
Events      
Averages and records for this station are not official NWS values.
T = Trace of Precipitation, MM = Missing Value Source: Averaged Metar Reports

Daily Weather History Graph

Daily Weather History Graph

Search for Another Location

Airport:

Trip Planner

Search our weather history database for the weather conditions in past years. The results will help you decide how hot, cold, wet, or windy it might be!

Date:

Astronomy

Nov. 05, 2013 Rise Set
Actual Time 5:43 AM AST 4:50 PM AST
Civil Twilight 5:20 AM AST 5:14 PM AST
Nautical Twilight 4:52 AM AST 5:41 PM AST
Astronomical Twilight 4:25 AM AST 6:08 PM AST
Moon 7:26 AM AST (11/5) 6:36 PM AST (11/5)
Length of Visible Light 11h 54m
Length of Day
11h 06m
Waxing Crescent, 5% of the Moon is Illuminated
Nov 5
Waxing Crescent
Nov 10
First Quarter
Nov 17
Full
Nov 25
Last Quarter
Dec 3
New

Hourly Weather History & Observations

Time (AST) Temp. Heat Index Dew Point Humidity Pressure Visibility Wind Dir Wind Speed Gust Speed Precip Events Conditions
12:00 AM 78.8 °F - 69.8 °F 74% 30.04 in - NNW 11.5 mph - N/A   Clear
12:30 AM 78.8 °F - 68.0 °F 69% 30.04 in - NNW 11.5 mph - N/A   Clear
1:00 AM 78.8 °F - 68.0 °F 69% 30.04 in - NNW 8.1 mph - N/A   Clear
1:30 AM 78.8 °F - 69.8 °F 74% 30.04 in - NNW 11.5 mph - N/A   Clear
2:00 AM 78.8 °F - 68.0 °F 69% 30.04 in - NNW 10.4 mph - N/A   Clear
2:30 AM 78.8 °F - 68.0 °F 69% 30.04 in - NNW 11.5 mph - N/A   Clear
3:00 AM 78 °F - 68 °F 65% 30.06 in 7 mi NNW 11.5 mph - -   Scattered Clouds
3:00 AM 78.8 °F - 68.0 °F 69% 30.04 in - NNW 11.5 mph - N/A   Clear
3:30 AM 78.8 °F - 68.0 °F 69% 30.04 in - NNW 11.5 mph - N/A   Clear
4:00 AM 78.8 °F - 68.0 °F 69% 30.04 in - NNW 12.7 mph - N/A   Clear
4:30 AM 77.0 °F - 68.0 °F 74% 30.06 in - NNW 12.7 mph - N/A   Clear
5:00 AM 77.0 °F - 68.0 °F 74% 30.06 in - NNW 12.7 mph - N/A   Clear
5:30 AM 77.0 °F - 68.0 °F 74% 30.06 in - NNW 11.5 mph - N/A   Clear
6:00 AM 77.0 °F - 68.0 °F 74% 30.06 in 5.6 mi NNW 11.5 mph - N/A   Unknown
6:30 AM 84.2 °F 86.6 °F 66.2 °F 55% 30.09 in - NNW 12.7 mph - N/A   Clear
7:00 AM 78.8 °F - 66.2 °F 65% 30.09 in - NNW 12.7 mph - N/A   Clear
7:30 AM 78.8 °F - 66.2 °F 65% 30.09 in - NNW 12.7 mph - N/A   Clear
8:00 AM 80.6 °F 82.3 °F 64.4 °F 58% 30.09 in - NNW 12.7 mph - N/A   Clear
9:00 AM 82 °F - 65 °F 46% 30.13 in 7 mi NNW 15.0 mph - -  
9:00 AM 82.4 °F 83.9 °F 64.4 °F 54% 30.12 in - NNW 15.0 mph - N/A   Clear
9:30 AM 82.4 °F 83.4 °F 62.6 °F 51% 30.12 in - NNW 13.8 mph - N/A   Clear
10:00 AM 82.4 °F 83.9 °F 64.4 °F 54% 30.09 in - NNW 11.5 mph - N/A   Clear
11:00 AM 84.2 °F 85.0 °F 62.6 °F 48% 30.09 in 6.2 mi North 12.7 mph - N/A   Partly Cloudy
11:30 AM 86.0 °F 86.1 °F 60.8 °F 43% 30.06 in 6.2 mi North 12.7 mph - N/A   Partly Cloudy
12:00 PM 84.2 °F 83.8 °F 59.0 °F 42% 30.06 in - NNE 11.5 mph - N/A   Clear
1:00 PM 86.0 °F 86.1 °F 60.8 °F 43% 30.04 in - NNE 11.5 mph - N/A   Clear
1:30 PM 86.0 °F 85.4 °F 59.0 °F 40% 30.04 in - NNE 11.5 mph - N/A   Clear
2:00 PM 86.0 °F 86.1 °F 60.8 °F 43% 30.04 in - NNE 15.0 mph - N/A   Clear
2:30 PM 86.0 °F 86.6 °F 62.6 °F 45% 30.04 in - NNE 15.0 mph - N/A   Clear
3:00 PM 86 °F - 62 °F 34% 30.04 in 10 mi North 1.2 mph - -  
3:00 PM 86.0 °F 86.1 °F 60.8 °F 43% 30.04 in - North 15.0 mph - N/A   Clear
3:30 PM 86.0 °F - 51.8 °F 31% 30.04 in - NNW 12.7 mph - N/A   Clear
4:00 PM 84.2 °F - 51.8 °F 33% 30.04 in - NNW 12.7 mph - N/A   Clear
4:30 PM 84.2 °F - 50.0 °F 30% 30.04 in - NNW 13.8 mph - N/A   Clear
5:00 PM 82.4 °F - 51.8 °F 35% 30.04 in - NNW 12.7 mph - N/A   Clear
5:30 PM 80.6 °F - 51.8 °F 37% 30.04 in - NNW 13.8 mph - N/A   Clear
6:00 PM 80.6 °F 80.5 °F 55.4 °F 42% 30.06 in - NNW 13.8 mph - N/A   Clear
6:30 PM 78.8 °F - 57.2 °F 47% 30.06 in - NNW 12.7 mph - N/A   Clear
7:00 PM 78.8 °F - 57.2 °F 47% 30.06 in - NNW 13.8 mph - N/A   Clear
7:30 PM 78.8 °F - 59.0 °F 51% 30.06 in - NNW 13.8 mph - N/A   Clear
8:00 PM 77.0 °F - 60.8 °F 57% 30.06 in - NNW 11.5 mph - N/A   Clear
8:30 PM 77.0 °F - 60.8 °F 57% 30.06 in - NNW 9.2 mph - N/A   Clear
9:00 PM 77 °F - 60 °F 45% 30.09 in 7 mi NNW 9.2 mph - -  
9:00 PM 77.0 °F - 59.0 °F 54% 30.06 in - NNW 9.2 mph - N/A   Clear
9:30 PM 77.0 °F - 60.8 °F 57% 30.06 in - NNW 9.2 mph - N/A   Clear
10:00 PM 77.0 °F - 60.8 °F 57% 30.06 in - NW 6.9 mph - N/A   Clear
10:30 PM 77.0 °F - 60.8 °F 57% 30.06 in - NW 6.9 mph - N/A   Clear
11:00 PM 77.0 °F - 60.8 °F 57% 30.06 in - NW 9.2 mph - N/A   Clear